RANA Weather Reports


Display with metric or nautical units.
time (UTC)temp
F
wind
direction
speed
MPH
gust
MPH
rain 1hr
in
rain 24hr
in
rain mn
in
humidity
%
barometer
mb
20260506051011 50 217 18.0 20.0 0.00 0.00 0.00 88
20260506050511 50 212 20.0 22.0 0.00 0.00 0.00 88
20260506045011 50 190 20.0 25.0 0.00 0.00 0.00 89
20260506044510 50 194 18.0 22.0 0.00 0.00 0.00 89
20260506044010 50 192 20.0 27.0 0.00 0.00 0.00 90
20260506043510 50 201 20.0 25.0 0.00 0.00 0.00 89
20260506043009 50 211 20.0 22.0 0.00 0.00 0.00 90
20260506042510 50 207 20.0 25.0 0.00 0.00 0.00 90
20260506042016 50 208 20.0 22.0 0.00 0.00 0.00 90
20260506041511 50 215 18.0 18.0 0.00 0.00 0.00 90
20260506041011 50 211 18.0 20.0 0.00 0.00 0.00 90
20260506040510 50 216 16.0 20.0 0.00 0.00 0.00 91
20260506040010 50 214 20.0 20.0 0.00 0.00 0.00 91
20260506035511 50 217 18.0 20.0 0.00 0.00 0.00 91
20260506035010 48 213 18.0 20.0 0.00 0.00 0.00 91
20260506034511 48 220 18.0 20.0 0.00 0.00 0.00 91
20260506034011 48 226 18.0 20.0 0.00 0.00 0.00 91
20260506033511 48 224 18.0 20.0 0.00 0.00 0.00 91
20260506033010 50 217 22.0 22.0 0.00 0.00 0.00 91
20260506032510 50 212 22.0 25.0 0.00 0.00 0.00 92
20260506032015 50 211 20.0 22.0 0.00 0.00 0.00 92
20260506031511 50 209 20.0 22.0 0.00 0.00 0.00 92
20260506031010 50 206 20.0 20.0 0.00 0.00 0.00 92
20260506030511 48 212 16.0 18.0 0.00 0.00 0.00 92
20260506030011 48 216 13.0 16.0 0.00 0.00 0.00 92
20260506025510 48 216 16.0 18.0 0.00 0.00 0.00 91
20260506025010 48 227 13.0 13.0 0.00 0.00 0.00 91
20260506024512 48 236 13.0 16.0 0.00 0.00 0.00 91
20260506024010 48 241 13.0 16.0 0.00 0.00 0.00 91
20260506023511 48 240 16.0 20.0 0.00 0.00 0.00 91
20260506023011 50 248 13.0 16.0 0.00 0.00 0.00 91
20260506022510 50 259 16.0 20.0 0.00 0.00 0.00 91
20260506022013 48 245 13.0 13.0 0.00 0.00 0.00 91
20260506021511 48 242 9.0 11.0 0.00 0.00 0.00 92
20260506021011 50 236 11.0 11.0 0.00 0.00 0.00 92
20260506020510 50 255 11.0 11.0 0.00 0.00 0.00 92
20260506020010 48 245 11.0 13.0 0.00 0.00 0.00 92
20260506015509 48 232 13.0 13.0 0.00 0.00 0.00 91
20260506015018 48 234 13.0 16.0 0.00 0.00 0.00 91
20260506014511 48 247 16.0 16.0 0.00 0.00 0.00 91
20260506014010 48 229 13.0 16.0 0.00 0.00 0.00 91
20260506013511 48 219 13.0 13.0 0.00 0.00 0.00 91
20260506013011 48 224 13.0 13.0 0.00 0.00 0.00 91
20260506012509 48 243 13.0 16.0 0.00 0.00 0.00 90
20260506012010 48 239 16.0 16.0 0.00 0.00 0.00 90
20260506011510 48 241 16.0 18.0 0.00 0.00 0.00 90
20260506011010 48 244 18.0 18.0 0.00 0.00 0.00 90
20260506010510 50 251 16.0 18.0 0.00 0.00 0.00 90
20260506010010 50 238 13.0 16.0 0.00 0.00 0.00 90
20260506005510 50 237 16.0 16.0 0.00 0.00 0.00 90
20260506005010 50 238 16.0 16.0 0.00 0.00 0.00 90
20260506004511 50 243 16.0 16.0 0.00 0.00 0.00 89
20260506004010 50 247 16.0 16.0 0.00 0.00 0.00 89
20260506003510 50 243 13.0 16.0 0.00 0.00 0.00 89
20260506003011 50 239 16.0 16.0 0.00 0.00 0.00 89
20260506002509 50 232 13.0 16.0 0.00 0.00 0.00 88
20260506002011 50 229 16.0 18.0 0.00 0.00 0.00 88
20260506001510 50 235 13.0 13.0 0.00 0.00 0.00 88
20260506001010 50 245 11.0 11.0 0.00 0.00 0.00 87
20260506000511 50 238 11.0 11.0 0.00 0.00 0.00 87
20260505235510 50 233 11.0 11.0 0.00 0.00 0.00 86
20260505235010 50 239 11.0 11.0 0.00 0.00 0.00 85
20260505234510 50 242 9.0 9.0 0.00 0.00 0.00 84
20260505234011 50 255 7.0 9.0 0.00 0.00 0.00 84
20260505233510 52 273 7.0 7.0 0.00 0.00 0.00 83
20260505233011 52 279 9.0 9.0 0.00 0.00 0.00 84
20260505231010 52 279 7.0 7.0 0.00 0.00 0.00 84
20260505230511 52 288 4.0 7.0 0.00 0.00 0.00 85
20260505230010 52 291 4.0 7.0 0.00 0.00 0.00 85
20260505225509 52 297 4.0 4.0 0.00 0.00 0.00 85
20260505225010 52 294 7.0 7.0 0.00 0.00 0.00 86
20260505224510 50 165 0.0 0.0 0.00 0.00 0.00 85
20260505224018 52 311 2.0 2.0 0.00 0.00 0.00 85
20260505223510 52 311 2.0 2.0 0.00 0.00 0.00 86
20260505223011 52 311 4.0 7.0 0.00 0.00 0.00 87
20260505222510 52 312 7.0 9.0 0.00 0.00 0.00 87
20260505222013 52 307 9.0 9.0 0.00 0.00 0.00 88
20260505221511 52 329 11.0 13.0 0.00 0.00 0.00 89
20260505221010 50 324 11.0 13.0 0.00 0.00 0.00 89
20260505220510 50 309 9.0 11.0 0.00 0.00 0.00 89
20260505220010 50 325 13.0 16.0 0.00 0.00 0.00 89
20260505215510 50 322 13.0 16.0 0.00 0.00 0.00 89
20260505215015 50 314 13.0 13.0 0.00 0.00 0.00 89
20260505214510 50 295 11.0 11.0 0.00 0.00 0.00 88
20260505214010 50 296 11.0 13.0 0.00 0.00 0.00 88
20260505213510 50 290 16.0 18.0 0.00 0.00 0.00 88
20260505213010 50 286 18.0 18.0 0.00 0.00 0.00 88
20260505212511 50 286 16.0 20.0 0.00 0.00 0.00 88
20260505212011 50 285 16.0 18.0 0.00 0.00 0.00 88
20260505211511 50 288 18.0 20.0 0.00 0.00 0.00 88
20260505211010 50 280 25.0 27.0 0.00 0.00 0.00 88
20260505210510 50 280 22.0 25.0 0.00 0.00 0.00 88
20260505210010 50 275 22.0 25.0 0.00 0.00 0.00 87
20260505205510 50 284 22.0 25.0 0.00 0.00 0.00 87
20260505205009 50 279 18.0 20.0 0.00 0.00 0.00 85
20260505204511 50 299 13.0 16.0 0.00 0.00 0.00 86
20260505204010 50 268 20.0 25.0 0.00 0.00 0.00 85
20260505203517 50 276 18.0 25.0 0.00 0.00 0.00 85
20260505203011 50 280 29.0 34.0 0.00 0.00 0.00 84
20260505202511 50 274 34.0 38.0 0.00 0.00 0.00 83
20260505202019 50 273 40.0 45.0 0.00 0.00 0.00 81
20260505201510 52 278 40.0 47.0 0.00 0.00 0.00 79
20260505201010 57 277 22.0 25.0 0.00 0.00 0.00 73
20260505200511 59 325 4.0 7.0 0.00 0.00 0.00 70
20260505200011 59 17 7.0 9.0 0.00 0.00 0.00 70
20260505195509 59 42 11.0 11.0 0.00 0.00 0.00 70
20260505195010 59 53 11.0 13.0 0.00 0.00 0.00 70
20260505194511 59 56 11.0 16.0 0.00 0.00 0.00 70
20260505194010 59 58 13.0 16.0 0.00 0.00 0.00 69
20260505193511 59 54 16.0 16.0 0.00 0.00 0.00 69
20260505193011 59 58 18.0 22.0 0.00 0.00 0.00 68
20260505192510 59 59 18.0 22.0 0.00 0.00 0.00 68
20260505192013 61 52 20.0 22.0 0.00 0.00 0.00 67
20260505191511 61 54 20.0 22.0 0.00 0.00 0.00 67
20260505191010 61 47 20.0 25.0 0.00 0.00 0.00 66
20260505190510 61 47 20.0 22.0 0.00 0.00 0.00 66
20260505190011 61 50 20.0 25.0 0.00 0.00 0.00 66
20260505185511 61 56 18.0 20.0 0.00 0.00 0.00 66
20260505185011 61 56 16.0 18.0 0.00 0.00 0.00 65
20260505184511 61 63 11.0 13.0 0.00 0.00 0.00 64
20260505184011 61 66 7.0 9.0 0.00 0.00 0.00 64
20260505183510 61 51 9.0 13.0 0.00 0.00 0.00 64
20260505183011 61 42 7.0 11.0 0.00 0.00 0.00 64
20260505182510 61 45 7.0 11.0 0.00 0.00 0.00 63
20260505182013 61 41 7.0 9.0 0.00 0.00 0.00 63
20260505181510 61 28 7.0 11.0 0.00 0.00 0.00 63
20260505181010 61 13 13.0 16.0 0.00 0.00 0.00 63
20260505180510 61 17 9.0 11.0 0.00 0.00 0.00 62
20260505180011 61 21 11.0 16.0 0.00 0.00 0.00 62
20260505175510 61 12 16.0 18.0 0.00 0.00 0.00 62
20260505175010 61 9 16.0 18.0 0.00 0.00 0.00 62
20260505174510 61 5 16.0 18.0 0.00 0.00 0.00 62
20260505174009 61 358 13.0 18.0 0.00 0.00 0.00 62
20260505173511 61 9 16.0 20.0 0.00 0.00 0.00 61
20260505173015 63 2 16.0 20.0 0.00 0.00 0.00 61
20260505172511 63 3 20.0 22.0 0.00 0.00 0.00 61
20260505172012 63 358 16.0 22.0 0.00 0.00 0.00 61
20260505171010 63 6 20.0 25.0 0.00 0.00 0.00 61
20260505170510 63 8 20.0 25.0 0.00 0.00 0.00 61
20260505170010 63 13 20.0 27.0 0.00 0.00 0.00 61
20260505165511 63 7 16.0 18.0 0.00 0.00 0.00 61
20260505165010 63 8 18.0 22.0 0.00 0.00 0.00 61
20260505164511 63 8 20.0 25.0 0.00 0.00 0.00 61
20260505164010 63 359 18.0 20.0 0.00 0.00 0.00 61
20260505163511 63 3 16.0 20.0 0.00 0.00 0.00 60
20260505163012 63 10 16.0 18.0 0.00 0.00 0.00 60
20260505162510 63 2 18.0 22.0 0.00 0.00 0.00 60
20260505162010 64 5 16.0 18.0 0.00 0.00 0.00 59
20260505161511 64 10 16.0 18.0 0.00 0.00 0.00 59
20260505161010 64 355 20.0 22.0 0.00 0.00 0.00 59
20260505160510 64 358 20.0 25.0 0.00 0.00 0.00 58
20260505153010 66 350 20.0 25.0 0.00 0.00 0.00 53
20260505152510 66 355 22.0 29.0 0.00 0.00 0.00 53
20260505152012 66 344 20.0 22.0 0.00 0.00 0.00 53
20260505151510 66 350 18.0 22.0 0.00 0.00 0.00 53
20260505151010 66 342 20.0 27.0 0.00 0.00 0.00 52
20260505150511 66 344 20.0 25.0 0.00 0.00 0.00 52
20260505140510 68 354 13.0 20.0 0.00 0.00 0.00 47
20260505125010 73 107 4.0 7.0 0.00 0.00 0.00 38
20260505124510 72 82 2.0 4.0 0.00 0.00 0.00 39
20260505124010 72 91 4.0 7.0 0.00 0.00 0.00 39
20260505123511 72 106 4.0 7.0 0.00 0.00 0.00 39
20260505123010 72 56 4.0 9.0 0.00 0.00 0.00 40
20260505122509 72 33 7.0 9.0 0.00 0.00 0.00 41
20260505122013 72 37 7.0 9.0 0.00 0.00 0.00 40
20260505121510 72 55 2.0 4.0 0.00 0.00 0.00 40
20260505121010 72 52 4.0 7.0 0.00 0.00 0.00 40
20260505120510 73 358 4.0 7.0 0.00 0.00 0.00 40
20260505120010 72 144 4.0 4.0 0.00 0.00 0.00 40
20260505115509 72 118 4.0 7.0 0.00 0.00 0.00 40
20260505115010 72 91 4.0 7.0 0.00 0.00 0.00 41
20260505114510 73 80 4.0 7.0 0.00 0.00 0.00 40
20260505114014 72 5 2.0 7.0 0.00 0.00 0.00 43
20260505113511 72 58 4.0 7.0 0.00 0.00 0.00 43
20260505113011 70 38 4.0 7.0 0.00 0.00 0.00 43
20260505112511 70 48 4.0 7.0 0.00 0.00 0.00 43
20260505112012 72 19 4.0 7.0 0.00 0.00 0.00 43
20260505111511 72 66 2.0 4.0 0.00 0.00 0.00 44
20260505111011 72 39 7.0 9.0 0.00 0.00 0.00 43
20260505110510 72 132 7.0 9.0 0.00 0.00 0.00 43
20260505101511 68 27 4.0 7.0 0.00 0.00 0.00 47
20260505101010 70 51 4.0 9.0 0.00 0.00 0.00 47
20260505100510 70 350 2.0 7.0 0.00 0.00 0.00 48
20260505100011 68 7 2.0 2.0 0.00 0.00 0.00 48
20260505095510 68 12 0.0 2.0 0.00 0.00 0.00 48
20260505095010 68 331 0.0 4.0 0.00 0.00 0.00 48
20260505094510 68 1 2.0 7.0 0.00 0.00 0.00 48
20260505094010 68 5 2.0 4.0 0.00 0.00 0.00 48
20260505093511 68 326 2.0 2.0 0.00 0.00 0.00 49
20260505093015 68 331 2.0 9.0 0.00 0.00 0.00 49
20260505092510 66 329 4.0 4.0 0.00 0.00 0.00 49
20260505092012 66 344 2.0 7.0 0.00 0.00 0.00 49
20260505091510 66 335 2.0 4.0 0.00 0.00 0.00 49
20260505091010 68 7 7.0 9.0 0.00 0.00 0.00 48
20260505090510 68 344 2.0 2.0 0.00 0.00 0.00 48
20260505090011 68 355 4.0 4.0 0.00 0.00 0.00 49
20260505085510 66 351 4.0 7.0 0.00 0.00 0.00 50
20260505085010 68 301 0.0 2.0 0.00 0.00 0.00 50
20260505084510 68 352 4.0 4.0 0.00 0.00 0.00 51
20260505084010 66 334 2.0 2.0 0.00 0.00 0.00 52
20260505083511 66 336 2.0 2.0 0.00 0.00 0.00 53
20260505083011 64 334 2.0 4.0 0.00 0.00 0.00 53
20260505082510 64 21 4.0 4.0 0.00 0.00 0.00 54
20260505082013 64 299 0.0 0.0 0.00 0.00 0.00 54
20260505081510 64 305 2.0 2.0 0.00 0.00 0.00 54
20260505081010 64 306 0.0 0.0 0.00 0.00 0.00 56
20260505080510 64 325 2.0 4.0 0.00 0.00 0.00 56
20260505080010 63 319 2.0 2.0 0.00 0.00 0.00 56
20260505075511 63 332 2.0 2.0 0.00 0.00 0.00 56
20260505075011 63 333 2.0 2.0 0.00 0.00 0.00 56
20260505074504 63 298 2.0 2.0 0.00 0.00 0.00 55
20260505074010 64 336 2.0 2.0 0.00 0.00 0.00 54
20260505073510 64 30 0.0 2.0 0.00 0.00 0.00 55
20260505073011 63 30 0.0 0.0 0.00 0.00 0.00 55
20260505072511 63 123 0.0 0.0 0.00 0.00 0.00 55
20260505072013 64 123 0.0 0.0 0.00 0.00 0.00 55
20260505071510 64 123 0.0 0.0 0.00 0.00 0.00 57
20260505071011 63 123 0.0 0.0 0.00 0.00 0.00 59
20260505070511 59 123 0.0 0.0 0.00 0.00 0.00 60
20260505070010 59 123 0.0 2.0 0.00 0.00 0.00 61
20260505065011 59 123 0.0 0.0 0.00 0.00 0.00 61
20260505064516 61 123 0.0 0.0 0.00 0.00 0.00 59
20260505064011 61 123 0.0 0.0 0.00 0.00 0.00 58
20260505063511 59 123 0.0 0.0 0.00 0.00 0.00 58
20260505063011 59 124 0.0 2.0 0.00 0.00 0.00 58
20260505062510 59 124 2.0 2.0 0.00 0.00 0.00 58
20260505062013 59 138 2.0 2.0 0.00 0.00 0.00 58
20260505061010 59 147 4.0 4.0 0.00 0.00 0.00 58
20260505060510 59 143 2.0 2.0 0.00 0.00 0.00 58
20260505055510 59 135 2.0 2.0 0.00 0.00 0.00 57
20260505055010 59 156 2.0 2.0 0.00 0.00 0.00 57